Regional Weather Roundup
Issued by NWS State College, PA

Home | Current Version | Previous Version | Text Only | Print | Product List | Glossary On
Versions: 1 2 3 4 5 6 7 8 9 10 11 12 13 14 15 16 17 18 19 20 21 22 23 24 25 26 27 28 29 30 31 32 33 34 35 36 37 38 39 40 41 42 43 44 45 46 47 48 49 50
562
ASUS41 KCTP 272103
RWRCTP

REGIONAL WEATHER ROUNDUP
NATIONAL WEATHER SERVICE STATE COLLEGE PA
500 PM EDT SAT MAY 27 2017

Note: "fair" indicates few or no clouds below 12,000 feet with no
significant weather and/or obstructions to visibility.

* = STATION THAT DOES NOT REPORT PRECIPITATION /E.G. RAIN...SNOW...ETC/
    THUNDER OR FOG.

PAZ002>004-007>009-013>016-020>023-029>032-272200-
WESTERN PENNSYLVANIA

CITY           SKY/WX    TMP DP  RH WIND       PRES   REMARKS
ERIE           SUNNY     65  53  65 N9        29.91R
MEADVILLE      PTSUNNY   70  55  59 VRB3      29.89S
FRANKLIN*      MOSUNNY   70  54  56 SW7       29.90R
NEW CASTLE     CLOUDY    71  58  63 VRB3      29.90
BEAVER COUNTY  NOT AVBL
BUTLER*        CLOUDY    72  57  60 SW3       29.89S
PITTSBURGH INT PTSUNNY   71  61  70 VRB5      29.88F
PITTSBURGH     CLOUDY    68  59  73 VRB3      29.89F
INDIANA*       CLOUDY    68  61  77 CALM      29.92S
LATROBE        CLOUDY    68  63  83 SW6       29.91F
WASHINGTON CO* PTSUNNY   70  61  73 N6        29.91F
$$

PAZ004>006-010>012-017>019-024>028-033>037-041-042-045-046-049>053-272200-
CENTRAL PENNSYLVANIA

CITY           SKY/WX    TMP DP  RH WIND       PRES   REMARKS
BRADFORD       MOSUNNY   69  52  54 VRB7      29.90F
DUBOIS         CLOUDY    68  54  60 SW6       29.88F
CLEARFIELD     PTSUNNY   71  56  58 VRB5      29.88F
JOHNSTOWN      CLOUDY    65  59  81 SW6       29.92F
ALTOONA        MOSUNNY   66  59  78 S3        29.92S
STATE COLLEGE  CLOUDY    70  55  60 CALM      29.89F
WILLIAMSPORT   MOSUNNY   72  55  55 S6        29.85F
SELINSGROVE    CLOUDY    72  55  55 VRB3      29.88F
FT INDIANTOWN  CLOUDY    72  56  57 SW8       29.88S
CAPITAL CITY   CLOUDY    72  55  55 W5        29.89S
HARRISBURG     PTSUNNY   72  59  63 SW5       29.88S
YORK           CLOUDY    63  61  93 CALM      29.90F
$$

PAZ038>040-043-044-047-048-054-055-060>062-067>071-272200-
EASTERN PENNSYLVANIA

CITY           SKY/WX    TMP DP  RH WIND       PRES   REMARKS
SCRANTON       CLOUDY    69  54  58 CALM      29.88F
MOUNT POCONO   MOSUNNY   66  50  56 NW8       29.91S
ALLENTOWN      MOSUNNY   73  52  47 W5        29.88S
QUAKERTOWN*    PTCLDY    73  55  53 CALM      29.90R
READING        CLOUDY    72  57  59 CALM      29.87S
LANCASTER      PTSUNNY   72  59  63 W6        29.89S
COATESVILLE    MOCLDY    68  57  68 CALM      29.91F
POTTSTOWN      MOSUNNY   72  54  53 VRB5      29.89F
BLUE BELL      CLOUDY    72  55  56 N3        29.90R
DOYLESTOWN     MOSUNNY   72  57  59 W5        29.88R
WILLOW GROVE   NOT AVBL
NORTH PHILA    CLOUDY    74  56  53 W6        29.89S
PHILADELPHIA   CLOUDY    71  55  56 SW12      29.90R
$$




USA.gov is the U.S. government's official web portal to all federal, state and local government web resources and services.